• In Österreich
  • Länderverzeichnis
  • Für 7 Tage
  • Wassertemperatur
  • Satellitenkarten
  • Wetterkarte
  • News
  • Widgets
  • user-avatar
    Anmelden

    Stündliche Wetter Chetumal

    Heute, 23 Januar, Dienstag

    Zeit Temperatur Niederschläge Wind Luftdruck Luftfeuchtigkeit
    00:00 +24°C° 0 mm 1 m/S 759 mmHg 98%
    01:00 +24°C° 0,1 mm 1 m/S 759 mmHg 99%
    02:00 +23°C° 0,1 mm 1 m/S 759 mmHg 99%
    03:00 +23°C° 0,1 mm 1 m/S 759 mmHg 99%
    04:00 +23°C° 0 mm 1 m/S 759 mmHg 99%
    05:00 +23°C° 0 mm 1 m/S 759 mmHg 99%
    06:00 +23°C° 0 mm 1 m/S 759 mmHg 99%
    07:00 +25°C° 0 mm 1 m/S 760 mmHg 93%
    08:00 +26°C° 0 mm 1 m/S 760 mmHg 88%
    09:00 +28°C° 0 mm 2 m/S 760 mmHg 82%
    10:00 +29°C° 0,1 mm 2 m/S 760 mmHg 75%
    11:00 +30°C° 0,1 mm 2 m/S 760 mmHg 68%
    12:00 +32°C° 0,1 mm 2 m/S 760 mmHg 61%
    13:00 +31°C° 0,6 mm 2 m/S 759 mmHg 64%
    14:00 +31°C° 0,6 mm 3 m/S 759 mmHg 68%
    15:00 +30°C° 0,6 mm 3 m/S 758 mmHg 71%
    16:00 +29°C° 0,3 mm 2 m/S 758 mmHg 77%
    17:00 +27°C° 0,3 mm 2 m/S 759 mmHg 83%
    18:00 +26°C° 0,3 mm 2 m/S 759 mmHg 89%
    19:00 +25°C° 0 mm 2 m/S 759 mmHg 92%
    20:00 +24°C° 0 mm 2 m/S 760 mmHg 94%
    21:00 +24°C° 0 mm 2 m/S 760 mmHg 97%
    22:00 +24°C° 0 mm 2 m/S 760 mmHg 98%
    23:00 +24°C° 0 mm 2 m/S 760 mmHg 98%

    Morgen, 24 Januar, Mittwoch

    Zeit Temperatur Niederschläge Wind Luftdruck Luftfeuchtigkeit
    00:00 +23°C° 0 mm 2 m/S 760 mmHg 98%
    01:00 +23°C° 0,1 mm 2 m/S 760 mmHg 99%
    02:00 +23°C° 0,1 mm 2 m/S 760 mmHg 99%
    03:00 +23°C° 0,1 mm 2 m/S 760 mmHg 99%
    04:00 +23°C° 0,3 mm 2 m/S 760 mmHg 99%
    05:00 +23°C° 0,3 mm 2 m/S 760 mmHg 99%
    06:00 +23°C° 0,3 mm 2 m/S 761 mmHg 99%
    07:00 +24°C° 0,3 mm 2 m/S 761 mmHg 96%
    08:00 +25°C° 0,3 mm 2 m/S 762 mmHg 94%
    09:00 +25°C° 0,3 mm 2 m/S 762 mmHg 92%
    10:00 +26°C° 0,7 mm 2 m/S 762 mmHg 89%
    11:00 +27°C° 0,7 mm 2 m/S 762 mmHg 85%
    12:00 +28°C° 0,7 mm 2 m/S 762 mmHg 82%
    13:00 +28°C° 0,7 mm 2 m/S 761 mmHg 83%
    14:00 +28°C° 0,7 mm 2 m/S 760 mmHg 84%
    15:00 +28°C° 0,7 mm 2 m/S 759 mmHg 84%
    16:00 +27°C° 0,1 mm 2 m/S 760 mmHg 88%
    17:00 +26°C° 0,1 mm 2 m/S 760 mmHg 91%
    18:00 +25°C° 0,1 mm 2 m/S 760 mmHg 94%
    19:00 +24°C° 0,1 mm 2 m/S 761 mmHg 95%
    20:00 +24°C° 0,1 mm 2 m/S 761 mmHg 96%
    21:00 +24°C° 0,1 mm 2 m/S 762 mmHg 97%
    22:00 +23°C° 0,1 mm 2 m/S 762 mmHg 98%
    23:00 +23°C° 0,1 mm 2 m/S 762 mmHg 98%

    übermorgen, 25 Januar, Donnerstag

    Zeit Temperatur Niederschläge Wind Luftdruck Luftfeuchtigkeit
    00:00 +23°C° 0,1 mm 2 m/S 762 mmHg 99%
    01:00 +23°C° 0,1 mm 2 m/S 762 mmHg 98%
    02:00 +23°C° 0,1 mm 2 m/S 761 mmHg 98%
    03:00 +23°C° 0,1 mm 2 m/S 761 mmHg 98%
    04:00 +23°C° 0,3 mm 2 m/S 761 mmHg 98%
    05:00 +23°C° 0,3 mm 2 m/S 761 mmHg 97%
    06:00 +22°C° 0,3 mm 3 m/S 761 mmHg 97%
    07:00 +24°C° 0,1 mm 3 m/S 762 mmHg 95%
    08:00 +24°C° 0,1 mm 3 m/S 762 mmHg 93%
    09:00 +25°C° 0,1 mm 3 m/S 763 mmHg 91%
    10:00 +26°C° 0,8 mm 3 m/S 763 mmHg 90%
    11:00 +26°C° 0,8 mm 3 m/S 762 mmHg 88%
    12:00 +27°C° 0,8 mm 3 m/S 762 mmHg 86%
    13:00 +27°C° 1,4 mm 3 m/S 761 mmHg 87%
    14:00 +27°C° 1,4 mm 3 m/S 761 mmHg 88%
    15:00 +27°C° 1,4 mm 3 m/S 760 mmHg 89%
    16:00 +26°C° 1,9 mm 3 m/S 760 mmHg 91%
    17:00 +25°C° 1,9 mm 3 m/S 760 mmHg 94%
    18:00 +24°C° 1,9 mm 3 m/S 760 mmHg 96%
    19:00 +24°C° 1,7 mm 3 m/S 761 mmHg 97%
    20:00 +24°C° 1,7 mm 3 m/S 761 mmHg 97%
    21:00 +24°C° 1,7 mm 3 m/S 762 mmHg 98%
    22:00 +24°C° 1,1 mm 3 m/S 762 mmHg 98%
    23:00 +24°C° 1,1 mm 3 m/S 762 mmHg 97%

    26 Januar, Freitag

    Zeit Temperatur Niederschläge Wind Luftdruck Luftfeuchtigkeit
    00:00 +24°C° 1,1 mm 3 m/S 761 mmHg 97%
    01:00 +24°C° 2,5 mm 3 m/S 761 mmHg 97%
    02:00 +22°C° 2,5 mm 3 m/S 761 mmHg 97%
    03:00 +22°C° 2,5 mm 3 m/S 760 mmHg 97%
    04:00 +22°C° 1,7 mm 3 m/S 761 mmHg 97%
    05:00 +22°C° 1,7 mm 3 m/S 761 mmHg 97%
    06:00 +22°C° 1,7 mm 3 m/S 761 mmHg 97%
    07:00 +24°C° 1,2 mm 3 m/S 761 mmHg 97%
    08:00 +24°C° 1,2 mm 3 m/S 762 mmHg 96%
    09:00 +24°C° 1,2 mm 3 m/S 762 mmHg 96%
    10:00 +25°C° 0,9 mm 3 m/S 762 mmHg 95%
    11:00 +25°C° 0,9 mm 3 m/S 762 mmHg 94%
    12:00 +25°C° 0,9 mm 3 m/S 762 mmHg 94%
    13:00 +25°C° 0,5 mm 3 m/S 761 mmHg 94%
    14:00 +25°C° 0,5 mm 3 m/S 760 mmHg 94%
    15:00 +25°C° 0,5 mm 2 m/S 759 mmHg 94%
    16:00 +25°C° 0,3 mm 2 m/S 759 mmHg 95%
    17:00 +24°C° 0,3 mm 2 m/S 759 mmHg 96%
    18:00 +24°C° 0,3 mm 2 m/S 760 mmHg 97%
    19:00 +24°C° 0,2 mm 2 m/S 760 mmHg 98%
    20:00 +24°C° 0,2 mm 2 m/S 760 mmHg 98%
    21:00 +23°C° 0,2 mm 2 m/S 761 mmHg 98%
    22:00 +23°C° 0,4 mm 2 m/S 761 mmHg 98%
    23:00 +23°C° 0,4 mm 2 m/S 760 mmHg 98%

    27 Januar, Samstag

    Zeit Temperatur Niederschläge Wind Luftdruck Luftfeuchtigkeit
    00:00 +23°C° 0,4 mm 2 m/S 760 mmHg 99%
    01:00 +23°C° 1 mm 2 m/S 760 mmHg 99%
    02:00 +23°C° 1 mm 2 m/S 759 mmHg 99%
    03:00 +23°C° 1 mm 2 m/S 759 mmHg 99%
    04:00 +23°C° 0,8 mm 2 m/S 759 mmHg 99%
    05:00 +23°C° 0,8 mm 2 m/S 759 mmHg 99%
    06:00 +23°C° 0,8 mm 2 m/S 759 mmHg 98%
    07:00 +24°C° 1 mm 2 m/S 760 mmHg 96%
    08:00 +25°C° 1 mm 2 m/S 760 mmHg 93%
    09:00 +26°C° 1 mm 2 m/S 761 mmHg 91%
    10:00 +26°C° 1,8 mm 2 m/S 761 mmHg 91%
    11:00 +27°C° 1,8 mm 3 m/S 760 mmHg 91%
    12:00 +27°C° 1,8 mm 3 m/S 760 mmHg 91%
    13:00 +27°C° 1,2 mm 3 m/S 759 mmHg 90%
    14:00 +27°C° 1,2 mm 2 m/S 759 mmHg 88%
    15:00 +27°C° 1,2 mm 2 m/S 758 mmHg 87%
    16:00 +26°C° 0,3 mm 2 m/S 758 mmHg 90%
    17:00 +26°C° 0,3 mm 2 m/S 758 mmHg 93%
    18:00 +25°C° 0,3 mm 1 m/S 759 mmHg 96%
    19:00 +24°C° 0 mm 1 m/S 759 mmHg 97%
    20:00 +24°C° 0 mm 1 m/S 759 mmHg 97%
    21:00 +24°C° 0 mm 1 m/S 760 mmHg 98%
    22:00 +23°C° 0 mm 1 m/S 760 mmHg 98%
    23:00 +23°C° 0 mm 1 m/S 759 mmHg 99%

    28 Januar, Sonntag

    Zeit Temperatur Niederschläge Wind Luftdruck Luftfeuchtigkeit
    00:00 +23°C° 0 mm 1 m/S 759 mmHg 99%
    01:00 +23°C° 0,1 mm 1 m/S 759 mmHg 99%
    02:00 +23°C° 0,1 mm 1 m/S 759 mmHg 99%
    03:00 +23°C° 0,1 mm 1 m/S 759 mmHg 99%
    04:00 +23°C° 0,1 mm 1 m/S 759 mmHg 99%
    05:00 +23°C° 0,1 mm 1 m/S 759 mmHg 99%
    06:00 +22°C° 0,1 mm 1 m/S 760 mmHg 99%
    07:00 +24°C° 0,1 mm 1 m/S 760 mmHg 95%
    08:00 +25°C° 0,1 mm 1 m/S 761 mmHg 92%
    09:00 +26°C° 0,1 mm 1 m/S 761 mmHg 88%
    10:00 +28°C° 0,8 mm 1 m/S 761 mmHg 82%
    11:00 +29°C° 0,8 mm 1 m/S 760 mmHg 76%
    12:00 +30°C° 0,8 mm 1 m/S 760 mmHg 69%
    13:00 +30°C° 0,6 mm 1 m/S 759 mmHg 72%
    14:00 +30°C° 0,6 mm 1 m/S 759 mmHg 74%
    15:00 +30°C° 0,6 mm 2 m/S 758 mmHg 76%
    16:00 +28°C° 0,6 mm 2 m/S 758 mmHg 82%
    17:00 +27°C° 0,6 mm 2 m/S 759 mmHg 88%
    18:00 +25°C° 0,6 mm 2 m/S 759 mmHg 95%
    19:00 +25°C° 0,2 mm 2 m/S 760 mmHg 96%
    20:00 +24°C° 0,2 mm 1 m/S 760 mmHg 96%
    21:00 +24°C° 0,2 mm 1 m/S 760 mmHg 97%
    22:00 +23°C° 0,3 mm 1 m/S 760 mmHg 98%
    23:00 +23°C° 0,3 mm 1 m/S 760 mmHg 98%
    Mehr zeigen